This is the latest recevied weather packets stored in our database for station/object PD2BVG. If no packets are shown the sender has not sent any weather packets the latest 1 day(s).
| Time | Temp. | Humidity | Pressure | Rain* | Wind** | Luminosity | Snow |
|---|---|---|---|---|---|---|---|
| 1777983931 | 13.89° C | 73% | 1011.3 hPa | 0 mm | 4.92 m/s, 355° | 580 W/m² | - |
| 1777983869 | 14.44° C | 74% | 1011.3 hPa | 0 mm | 4.92 m/s, 347° | 543 W/m² | - |
| 1777983809 | 14.44° C | 74% | 1011.3 hPa | 0 mm | 4.92 m/s, 292° | 568 W/m² | - |
| 1777983750 | 14.44° C | 74% | 1011.3 hPa | 0 mm | 4.47 m/s, 340° | 563 W/m² | - |
| 1777983690 | 14.44° C | 74% | 1011.3 hPa | 0 mm | 4.92 m/s, 351° | 577 W/m² | - |
| 1777983631 | 14.44° C | 73% | 1011.2 hPa | 0 mm | 4.92 m/s, 305° | 591 W/m² | - |
| 1777983569 | 14.44° C | 73% | 1011.4 hPa | 0 mm | 4.92 m/s, 0° | 526 W/m² | - |
| 1777983510 | 14.44° C | 74% | 1011.3 hPa | 0 mm | 4.92 m/s, 345° | 526 W/m² | - |
| 1777983448 | 14.44° C | 73% | 1011.3 hPa | 0 mm | 4.47 m/s, 347° | 514 W/m² | - |
| 1777983390 | 14.44° C | 73% | 1011.3 hPa | 0 mm | 4.47 m/s, 323° | 543 W/m² | - |
| 1777983329 | 14.44° C | 73% | 1011.3 hPa | 0 mm | 4.47 m/s, 341° | 558 W/m² | - |
| 1777983269 | 14.44° C | 73% | 1011.4 hPa | 0 mm | 4.02 m/s, 309° | 531 W/m² | - |
| 1777983206 | 14.44° C | 73% | 1011.3 hPa | 0 mm | 4.02 m/s, 281° | 540 W/m² | - |
| 1777983146 | 14.44° C | 73% | 1011.3 hPa | 0 mm | 4.92 m/s, 334° | 565 W/m² | - |
| 1777983087 | 14.44° C | 73% | 1011.3 hPa | 0 mm | 4.02 m/s, 25° | 573 W/m² | - |
| 1777983025 | 14.44° C | 73% | 1011.3 hPa | 0 mm | 4.02 m/s, 338° | 549 W/m² | - |
| 1777982970 | 14.44° C | 73% | 1011.3 hPa | 0 mm | 5.36 m/s, 327° | 561 W/m² | - |
| 1777982902 | 14.44° C | 72% | 1011.3 hPa | 0 mm | 5.81 m/s, 344° | 580 W/m² | - |
| 1777982842 | 14.44° C | 72% | 1011.3 hPa | 0 mm | 5.36 m/s, 344° | 577 W/m² | - |
| 1777982781 | 14.44° C | 73% | 1011.3 hPa | 0 mm | 4.47 m/s, 324° | 586 W/m² | - |
| 1777982721 | 14.44° C | 74% | 1011.3 hPa | 0 mm | 3.13 m/s, 338° | 605 W/m² | - |
| 1777982661 | 14.44° C | 74% | 1011.4 hPa | 0 mm | 2.68 m/s, 305° | 630 W/m² | - |
| 1777982599 | 14.44° C | 73% | 1011.3 hPa | 0 mm | 3.58 m/s, 0° | 598 W/m² | - |
| 1777982538 | 14.44° C | 73% | 1011.3 hPa | 0 mm | 4.47 m/s, 338° | 631 W/m² | - |
| 1777982474 | 14.44° C | 73% | 1011.4 hPa | 0 mm | 4.92 m/s, 337° | 608 W/m² | - |
* Rain latest hour (hover to see other rain measurements)
** Current wind speed in m/s (hover to see current wind gust speed)